Starlink 30894

operational
NORAD ID: 58375 Int'l Des: 2023-178 Owner: SPXS Country: US Constellation: starlink
LEOCIRCULAR

Starlink 30894について

説明を読み込み中...

リアルタイム位置

3D地球を読み込み中...

次回通過

高度履歴

Altitude vs Time

uPlot chart will show altitude changes over time

軌道要素

1 58375U 23178B 25351.33758390 -.00001245 00000-0 -29926-4 0 9999
2 58375 53.1602 23.5410 0001250 105.2200 254.8939 15.30190188117218
Epoch: Dec 17, 2025 • Age: 5 hours

現在のステータス

高度 475.8 km
速度 7.63 km/s
衛星直下点 23.16°N, 120.8°E
打ち上げ日 Nov 20, 2023
運用期間 2 years
タイプ internet

技術仕様

分類 Payload
質量 730.00 kg
乾燥質量 700.00 kg
総質量 730.00 kg
長さ 0.30 m
直径 4.10 m
スパン 29.00 m
形状 Box + pan
製造者 SPXS
バスタイプ Starlink V2M
フェーズステータス In Orbit
所有者/国 SPXS/US

大規模コンステレーション

Loading constellations...